リニア-スキッフ彗星

P/2001 R6 ( LINEAR-Skiff )

English version
Home page
Updated on February 26, 2002

---------------------------------------------------------------------

・ プロフィール

発見日 2001年9月11日, 9月25日
発見光度 17.0等
発見者 Lincoln Laboratory Near-Earth Asteroid Research project, B. A. Skiff (Lowell Observatory)

・ 軌道要素

T 2001 Oct. 27.0897 TT                                  MPC
q   2.115100             (2000.0)            P               Q
n   0.1180889      Peri.  306.1915      +0.9241972      -0.2589552
a   4.114623       Node    70.3218      +0.3678288      +0.8013185
e   0.485955       Incl.   17.3452      -0.1027695      +0.5392873
P   8.35
>From 67 observations 2001 Aug. 19-Nov. 16.

・ 星図

・ 光度変化

        m1 = 6.8 + 5 logΔ + 30.0 log r

---------------------------------------------------------------------

軌道要素は Dr. Brian G. Marsden の計算によるもので、 M.P.E.C. 2001-W17 に掲載されたものです。
星図は StellaNavigator Ver.2.0 for Windows (アストロアーツ 編著 / アスキー出版局刊) で作成したものです。
光度グラフはComet for Windowsで作成したものです。

---------------------------------------------------------------------

Copyright(C) Seiichi Yoshida (comet@aerith.net). All rights reserved.